Torna al catalogo

STARLINK-36194

AttivoComunicazioniVLEO
NORAD 67130·PAYLOAD·🇺🇸 United States

Lanciato Dec 15, 2025 da Cape Canaveral Space Force Station

Loading…

Prossimi Passaggi (prossime 24 ore)

TLE

AggiornatoSource: CelesTrak SupGP

Epoca: Sep 14, 2026, 22:37 UTC

1 67130C 25299AE  26257.94284722 -.00022124  00000+0 -80123-3 0  2570
2 67130  43.0027 180.1306 0001051 264.2261 351.5805 15.27593720    13

Traccia STARLINK-36194 in tempo reale con AllMySat

Download on the App Store